Showing default

ESSA 3 (TOS-A), 2435

Orbit data source: Space-Track

ESSA 3 (TOS-A), 2435 is a payload satellite owned by ESSA (US) in SSO that was launched on Sun, 02 Oct 1966 UTC via a THOR DELTA E launch vehicle from the Air Force Western Test Range (AFWTR). Payload-class satellites include a variety of spacecraft equipped with specific instruments for various scientific and technological missions. These include communications satellites like Starlink; space stations such as the ISS; scientific satellites like the Hubble; Earth observation satellites from companies like Planet Labs, Umbra, and HawkEye 360; GPS; miniature CubeSats for education and research; and military/defense satellites.

Loading next visibility...
Identifier
2435, 1966-087A
Orbit
SSO
Country
Flag of USUS
Related business
Manufacturer
RCA/East Windsor
Mission
Non-operational spacecraft
Bus & Motor
TIROS I, Unknown motor
Mass
148 kg wet, 148 kg dry
Launch date (UTC)
1966-10-02 (60 years ago)
Launch vehicle
THOR DELTA E
Launch site
Air Force Western Test Range (AFWTR)
Object type
Payload
Rocket body
Debris
Shape & HBR
Unknown
Radar Cross Section
Medium (>0.1 m² and <1 m²)

Expand to show TLE details & history
Last TLE update: 15 hours ago

TLE from 15 hours ago
0 ESSA 3 (TOS-A)
1  2435U 66087A   26129.32236285 -.00000035  00000-0  35941-4 0  9997
2  2435 101.0807  34.4600 0064331 115.4796 354.1787 12.56879943734126
Epoch: 2026-05-09T07:44Z
TLE epoch observation values (Epoch: 2026-05-09T07:44:12.150Z)
Latitude
67.6868°
Longitude
-100.38347°
Altitude
1,397.407 km
Speed
7.19 km/s
True Right ascension
16h 11m 14s
True Declination
67° 34' 33"
Sunlit
Object was in daylight at epoch
Visualization orbit readout
Latitude
Unknown
Longitude
Unknown
Altitude
Unknown
Speed
Unknown
Apparent Right ascension
Unknown
Apparent Declination
Unknown
Sunlit
N/A
Visualization observer readout
Local Sidereal Time
06:46:37
Azimuth
Unknown
Elevation
Unknown
Doppler factor
Unknown
Orbital elements
Apogee altitude
1,483.601 km
Perigee altitude
1,383.097 km
Semi-major axis
7,811.486 km
Eccentricity
0.00643
Inclination
101.0807°
RAAN
34.46°
Arg. of periapsis
115.4796°
True anomaly
354.10333°
Mean anomaly
354.1787°
Eccentric anomaly
354.14107°
Mean motion
3.14371 °/min
Orbital period
114.51 mins
BSTAR
0.000035941
Loading maneuver chart data...
Computing Atmospheric mass density...
Loading historical data...
Loading historical data...
Loading historical data...
Loading historical data...
Loading historical data...
Loading historical data...
Loading historical data...
Other satellites on launch #87 in the year 1966 (1966-10-02 UTC)

Documentation

Showing up to 5 results
|